Regional Weather Roundup
Issued by NWS

Home | Current Version | Previous Version | Text Only | Print | Product List | Glossary On
Versions: 1 2 3 4 5 6 7 8 9 10 11 12 13 14 15 16 17 18 19 20 21 22 23 24 25 26 27 28 29 30 31 32 33 34 35 36 37 38 39 40 41 42 43 44 45 46 47 48 49 50
000
ASUS44 KFWD 292003
RWRTX
NORTH TEXAS HOURLY WEATHER ROUNDUP
NATIONAL WEATHER SERVICE FORT WORTH TX
300 PM CDT WED MAR 29 2017

NOTE: "FAIR" INDICATES FEW OR NO CLOUDS BELOW 12,000 FEET WITH NO
SIGNIFICANT WEATHER AND/OR OBSTRUCTIONS TO VISIBILITY.

TXZ118-119-292100-
DALLAS/FORT WORTH METROPLEX

CITY           SKY/WX    TMP DP  RH WIND       PRES   REMARKS
DFW AIRPORT    MOSUNNY   82  42  24 SW26G32   29.70S
DALLAS LOVE    MOSUNNY   80  43  26 S17G31    29.71F
FTW MEACHAM    SUNNY     79  43  27 SW20G33   29.71S
DAL-EXECUTIVE  SUNNY     79  48  33 SW9G24    29.72F
FTW-ALLIANCE   MOSUNNY   79  43  27 SW17G31   29.71R
FTW-NAS-JRB    MOSUNNY   79  43  27 SW20G33   29.72S
FTW-SPINKS     MOSUNNY   79  43  27 SW20G30   29.75S
ARLINGTON      SUNNY    N/A N/A N/A SW18G32   29.72F
GRAND PRAIRIE  SUNNY     79  43  27 SW17      29.74F
ADDISON        SUNNY     77  50  38 S18G29    29.71F
MESQUITE       MOSUNNY   79  52  38 S14G25    29.73F
LANCASTER      SUNNY     77  55  45 SW14G20   29.75S
$$

TXZ091>094-102>105-117-120-121-131>134-292100-
NORTH CENTRAL TEXAS

CITY           SKY/WX    TMP DP  RH WIND       PRES   REMARKS
SHRMAN/DENISON SUNNY     77  51  39 S22       29.71S
GAINESVILLE    SUNNY     76  44  31 W22G28    29.72S
BOWIE          MOSUNNY   76  46  34 SW14G22   29.71S
BRIDGEPORT     PTSUNNY   74  46  37 W10G16    29.73S
DECATUR        SUNNY     76  46  33 SW13G29   29.72S
DENTON         SUNNY     78  47  33 SW20G30   29.71S
MCKINNEY       SUNNY     79  50  36 S21G30    29.69F
BONHAM         SUNNY     75  54  46 SW25G32   29.71F
ROCKWALL       SUNNY     78  54  42 SW20G26   29.73S
TERRELL        SUNNY     79  47  32 SW21G29   29.73F
WAXAHACHIE     SUNNY     78  50  37 SW16G23   29.75F
CLEBURNE       SUNNY     77  45  31 SW14G23   29.76S
GRANBURY       MOSUNNY   79  45  29 SW16G24   29.75S
$$

TXZ083>090-098>101-113>116-127>130-139>142-154-155-292100-
WESTERN NORTH TEXAS

CITY           SKY/WX    TMP DP  RH WIND       PRES   REMARKS
WICHITA FALLS  PTSUNNY   61  52  72 NW20      29.75R
WF-KICKAPOO    PTSUNNY   64  53  69 NW16G22   29.76R
VERNON         CLOUDY    58  47  66 N17       29.80R
ABILENE        PTSUNNY   67  47  48 W15       29.78S
ABILENE-DYESS  MOSUNNY   67  47  49 W21G28    29.78R
GRAHAM         PTSUNNY   74  47  39 SW14G21   29.72R
BRECKENRIDGE   PTSUNNY   73  45  36 W20G28    29.75S
CISCO          MOSUNNY   73  45  35 W20G30    29.76S
RANGER         PTSUNNY   72  45  37 W10G25    29.76S
MINERAL WELLS  PTSUNNY   76  45  33 W14G25    29.72R
STEPHENVILLE   MOSUNNY   76  42  30 SW13G23   29.78S
COMANCHE       MOSUNNY   74  46  37 W16G23    29.78S
COLEMAN        PTSUNNY   73  43  34 W12G23    29.79S
$$

TXZ143>147-156>162-174-175-292100-
CENTRAL TEXAS

CITY           SKY/WX    TMP DP  RH WIND       PRES   REMARKS
WACO           SUNNY     78  50  37 S12       29.76F
WACO-TSTC      SUNNY    N/A N/A N/A W9G17     29.76F
WACO-MCGREGOR  SUNNY     79  50  36 S13       29.77F
HILLSBORO      SUNNY     77  52  42 SW16      29.76S
CORSICANA      SUNNY     80  59  48 SW18G25   29.75F
MEXIA          MOSUNNY   77  54  44 SW12G23   29.76S
HEARNE         MOSUNNY   79  65  62 S6        29.76F
CAMERON        SUNNY     80  54  41 W8        29.76F
TEMPLE         SUNNY     80  49  33 SW13G18   29.78F
KILLEEN        SUNNY     76  47  35 SW9       29.78F
KILLEEN-SKYLRK SUNNY     78  47  33 W12G21    29.78S
FORT HOOD      SUNNY     78  46  31 SW13      29.76S
GATESVILLE     SUNNY     79  45  29 SW8       29.79F
HAMILTON       SUNNY     76  45  32 SW15      29.79F
LAMPASAS       SUNNY     76  47  36 W13       29.78F
$$

TXZ095>097-106>112-122>126-135>138-148>153-164>167-292100-
EAST TEXAS

CITY           SKY/WX    TMP DP  RH WIND       PRES   REMARKS
PARIS          CLOUDY    73  61  64 S20G28    29.74F
SULPHUR SPRNGS PTSUNNY   75  62  62 SW13      29.74F
MOUNT PLEASANT MOSUNNY   76  62  62 S9        29.76F
GILMER         CLOUDY    75  62  64 S16G24    29.75S
MINEOLA        PTSUNNY   77  64  65 S9G17     29.73F
TYLER          PTSUNNY   77  64  64 S18G29    29.74F
LONGVIEW       MOSUNNY   78  66  66 S15G22    29.74F
MARSHALL       PTSUNNY   76  62  62 MISG      29.77F
ATHENS         PTSUNNY   77  61  57 S7G20     29.73F
PALESTINE      MOSUNNY   78  66  67 S16G22    29.77F
JACKSONVILLE   PTSUNNY   76  65  70 S12G18    29.78F
HENDERSON      MOSUNNY   77  63  62 S12G20    29.76F
NACOGDOCHES    CLOUDY    73  64  73 SW12      29.75F
LUFKIN         CLOUDY    74  67  78 S9G20     29.77F
$$

SUPPLEMENTAL OBSERVATIONS (CENTRAL)

CITY           SKY/WX    TMP DP  RH WIND       PRES   REMARKS
$$

SUPPLEMENTAL OBSERVATIONS (WEST)

CITY           SKY/WX    TMP DP  RH WIND       PRES   REMARKS
$$

SUPPLEMENTAL OBSERVATIONS (EAST)

CITY           SKY/WX    TMP DP  RH WIND       PRES   REMARKS
$$

SUPPLEMENTAL OBSERVATIONS ARE A COLLECTION OF AUTOMATED INSTRUMENTS
THAT ARE MAINTAINED BY A VARIETY OF FEDERAL AND STATE AGENCIES.
CERTAIN ELEMENTS...SUCH AS HUMIDITY VALUES AND SUSTAINED WIND
SPEEDS...MAY BE APPROXIMATED.





USA.gov is the U.S. government's official web portal to all federal, state and local government web resources and services.